Location: Columbus
(35.2256°N, 82.1549°W)
Time: 18:33:46
(UTC-05:00)

Envisat - Pass Details

Date: 05 December 2021
Orbit: 764 x 766 km, 98.2° (Epoch: 21 January)

Event Time Altitude Azimuth Distance (km) Brightness Sun altitude
Rises 06:37:39 0° 353° (N) 3,236 6.0 -9.2°
Reaches altitude 10° 06:40:37 10° 335° (NNW) 2,305 5.1 -8.6°
Maximum altitude 06:43:57 18° 294° (WNW) 1,807 4.3 -8.0°
Drops below altitude 10° 06:47:18 10° 252° (WSW) 2,296 5.0 -7.4°
Sets 06:50:16 0° 234° (SW) 3,217 5.9 -6.8°
